Time,TemperatureF,DewpointF,PressureIn,WindDirection,WindDirectionDegrees,WindSpeedMPH,WindSpeedGustMPH,Humidity,HourlyPrecipIn,Conditions,Clouds,dailyrainin,SoftwareType,DateUTC
2013-03-02 00:14:00,19.4,13.0,30.32,NNE,27,3.0,-999.0,77,-99.99,,,0.00,weatherlink.com 1.10,2013-03-02 05:14:00,
2013-03-02 00:29:00,19.0,13.0,30.31,NE,47,5.0,-999.0,77,-99.99,,,0.00,weatherlink.com 1.10,2013-03-02 05:29:00,
2013-03-02 00:44:00,18.4,13.0,30.31,NNE,19,1.0,-999.0,78,-99.99,,,0.00,weatherlink.com 1.10,2013-03-02 05:44:00,
2013-03-02 00:59:00,18.3,13.0,30.31,NNE,28,3.0,-999.0,80,-99.99,,,0.00,weatherlink.com 1.10,2013-03-02 05:59:00,
2013-03-02 01:14:00,18.4,14.0,30.31,NE,46,5.0,-999.0,81,-99.99,,,0.00,weatherlink.com 1.10,2013-03-02 06:14:00,
2013-03-02 01:29:00,18.6,14.0,30.31,NNE,25,3.0,-999.0,82,-99.99,,,0.00,weatherlink.com 1.10,2013-03-02 06:29:00,
2013-03-02 01:44:00,18.7,14.0,30.31,North,9,6.0,-999.0,83,-99.99,,,0.00,weatherlink.com 1.10,2013-03-02 06:44:00,
2013-03-02 01:59:00,19.0,15.0,30.31,NNE,26,8.0,-999.0,84,-99.99,,,0.00,weatherlink.com 1.10,2013-03-02 06:59:00,
2013-03-02 02:15:00,19.1,15.0,30.31,NNE,28,12.0,-999.0,84,-99.99,,,0.00,weatherlink.com 1.10,2013-03-02 07:15:00,
2013-03-02 02:30:00,19.1,15.0,30.30,NE,36,2.0,-999.0,85,-99.99,,,0.00,weatherlink.com 1.10,2013-03-02 07:30:00,
2013-03-02 02:45:00,19.0,15.0,30.30,NE,37,6.0,-999.0,85,-99.99,,,0.00,weatherlink.com 1.10,2013-03-02 07:45:00,
2013-03-02 03:00:00,18.9,15.0,30.30,NNE,22,5.0,-999.0,86,-99.99,,,0.00,weatherlink.com 1.10,2013-03-02 08:00:00,
2013-03-02 03:15:00,18.8,16.0,30.30,NE,45,4.0,-999.0,87,-99.99,,,0.00,weatherlink.com 1.10,2013-03-02 08:15:00,
2013-03-02 03:30:00,18.8,16.0,30.30,NNE,16,6.0,-999.0,87,-99.99,,,0.00,weatherlink.com 1.10,2013-03-02 08:30:00,
2013-03-02 03:46:00,18.7,16.0,30.29,NNE,31,1.0,-999.0,87,-99.99,,,0.00,weatherlink.com 1.10,2013-03-02 08:46:00,
2013-03-02 04:00:00,18.6,16.0,30.29,North,5,4.0,-999.0,88,-99.99,,,0.00,weatherlink.com 1.10,2013-03-02 09:00:00,
2013-03-02 04:15:00,18.5,16.0,30.29,NNE,25,6.0,-999.0,88,-99.99,,,0.00,weatherlink.com 1.10,2013-03-02 09:15:00,
2013-03-02 04:30:00,18.5,16.0,30.29,North,11,8.0,-999.0,88,-99.99,,,0.00,weatherlink.com 1.10,2013-03-02 09:30:00,
2013-03-02 04:45:00,18.4,16.0,30.29,North,355,6.0,-999.0,88,-99.99,,,0.00,weatherlink.com 1.10,2013-03-02 09:45:00,
2013-03-02 05:00:00,18.3,16.0,30.29,North,5,6.0,-999.0,89,-99.99,,,0.00,weatherlink.com 1.10,2013-03-02 10:00:00,
2013-03-02 05:15:00,18.3,16.0,30.30,North,360,3.0,-999.0,89,-99.99,,,0.00,weatherlink.com 1.10,2013-03-02 10:15:00,
2013-03-02 05:31:00,18.3,16.0,30.29,NNW,345,8.0,-999.0,89,-99.99,,,0.00,weatherlink.com 1.10,2013-03-02 10:31:00,
2013-03-02 05:46:00,18.2,16.0,30.30,NNE,19,6.0,-999.0,89,-99.99,,,0.00,weatherlink.com 1.10,2013-03-02 10:46:00,
2013-03-02 06:01:00,18.1,16.0,30.30,NNE,28,8.0,-999.0,90,-99.99,,,0.00,weatherlink.com 1.10,2013-03-02 11:01:00,
2013-03-02 06:16:00,18.0,16.0,30.30,NNW,340,7.0,-999.0,90,-99.99,,,0.00,weatherlink.com 1.10,2013-03-02 11:16:00,
2013-03-02 06:31:00,17.9,15.0,30.30,North,355,7.0,-999.0,89,-99.99,,,0.00,weatherlink.com 1.10,2013-03-02 11:31:00,
2013-03-02 06:46:00,17.9,15.0,30.30,North,11,4.0,-999.0,89,-99.99,,,0.00,weatherlink.com 1.10,2013-03-02 11:46:00,
2013-03-02 07:01:00,17.9,16.0,30.30,North,355,7.0,-999.0,90,-99.99,,,0.00,weatherlink.com 1.10,2013-03-02 12:01:00,
2013-03-02 07:16:00,17.8,15.0,30.30,North,360,3.0,-999.0,90,-99.99,,,0.00,weatherlink.com 1.10,2013-03-02 12:16:00,
2013-03-02 07:31:00,17.7,16.0,30.30,North,9,6.0,-999.0,91,-99.99,,,0.00,weatherlink.com 1.10,2013-03-02 12:31:00,
2013-03-02 07:46:00,17.7,16.0,30.30,North,5,5.0,-999.0,91,-99.99,,,0.00,weatherlink.com 1.10,2013-03-02 12:46:00,
2013-03-02 08:01:00,17.8,16.0,30.30,North,360,4.0,-999.0,92,-99.99,,,0.00,weatherlink.com 1.10,2013-03-02 13:01:00,
2013-03-02 08:16:00,18.0,16.0,30.30,NNE,23,10.0,-999.0,92,-99.99,,,0.00,weatherlink.com 1.10,2013-03-02 13:16:00,
2013-03-02 08:31:00,18.2,16.0,30.30,NNE,30,6.0,-999.0,91,-99.99,,,0.00,weatherlink.com 1.10,2013-03-02 13:31:00,
2013-03-02 08:47:00,18.5,16.0,30.30,NNE,26,3.0,-999.0,90,-99.99,,,0.00,weatherlink.com 1.10,2013-03-02 13:47:00,
2013-03-02 09:02:00,18.8,16.0,30.30,NNE,15,10.0,-999.0,89,-99.99,,,0.00,weatherlink.com 1.10,2013-03-02 14:02:00,
2013-03-02 09:17:00,19.0,16.0,30.30,North,355,7.0,-999.0,89,-99.99,,,0.00,weatherlink.com 1.10,2013-03-02 14:17:00,
2013-03-02 09:32:00,19.3,17.0,30.30,North,355,8.0,-999.0,89,-99.99,,,0.00,weatherlink.com 1.10,2013-03-02 14:32:00,
2013-03-02 09:47:00,19.5,17.0,30.30,North,351,9.0,-999.0,88,-99.99,,,0.00,weatherlink.com 1.10,2013-03-02 14:47:00,
2013-03-02 10:02:00,19.4,16.0,30.30,North,355,7.0,-999.0,87,-99.99,,,0.00,weatherlink.com 1.10,2013-03-02 15:02:00,
2013-03-02 10:17:00,19.5,16.0,30.30,North,9,10.0,-999.0,87,-99.99,,,0.00,weatherlink.com 1.10,2013-03-02 15:17:00,
2013-03-02 10:32:00,19.7,16.0,30.29,NNW,329,11.0,-999.0,86,-99.99,,,0.00,weatherlink.com 1.10,2013-03-02 15:32:00,
2013-03-02 10:47:00,19.8,16.0,30.29,NNW,344,9.0,-999.0,86,-99.99,,,0.00,weatherlink.com 1.10,2013-03-02 15:47:00,
2013-03-02 11:02:00,19.9,16.0,30.29,North,5,9.0,-999.0,86,-99.99,,,0.00,weatherlink.com 1.10,2013-03-02 16:02:00,
2013-03-02 11:17:00,20.2,17.0,30.29,North,5,9.0,-999.0,87,-99.99,,,0.00,weatherlink.com 1.10,2013-03-02 16:17:00,
2013-03-02 11:32:00,20.1,17.0,30.29,North,355,6.0,-999.0,86,-99.99,,,0.00,weatherlink.com 1.10,2013-03-02 16:32:00,
2013-03-02 11:47:00,20.2,17.0,30.29,North,5,7.0,-999.0,86,-99.99,,,0.00,weatherlink.com 1.10,2013-03-02 16:47:00,
2013-03-02 12:03:00,20.3,17.0,30.29,North,355,14.0,-999.0,86,-99.99,,,0.00,weatherlink.com 1.10,2013-03-02 17:03:00,
2013-03-02 12:18:00,20.3,17.0,30.29,NE,41,10.0,-999.0,87,-99.99,,,0.00,weatherlink.com 1.10,2013-03-02 17:18:00,
2013-03-02 12:33:00,20.2,17.0,30.29,NNW,342,10.0,-999.0,86,-99.99,,,0.00,weatherlink.com 1.10,2013-03-02 17:33:00,
2013-03-02 12:48:00,20.2,16.0,30.29,North,360,7.0,-999.0,85,-99.99,,,0.00,weatherlink.com 1.10,2013-03-02 17:48:00,
2013-03-02 13:03:00,20.6,17.0,30.29,North,355,10.0,-999.0,84,-99.99,,,0.00,weatherlink.com 1.10,2013-03-02 18:03:00,
2013-03-02 13:18:00,20.8,16.0,30.28,North,5,12.0,-999.0,83,-99.99,,,0.00,weatherlink.com 1.10,2013-03-02 18:18:00,
2013-03-02 13:33:00,20.5,17.0,30.28,North,355,9.0,-999.0,86,-99.99,,,0.00,weatherlink.com 1.10,2013-03-02 18:33:00,
2013-03-02 13:48:00,20.7,17.0,30.27,North,9,9.0,-999.0,84,-99.99,,,0.00,weatherlink.com 1.10,2013-03-02 18:48:00,
2013-03-02 14:03:00,21.9,16.0,30.27,North,11,8.0,-999.0,79,-99.99,,,0.00,weatherlink.com 1.10,2013-03-02 19:03:00,
2013-03-02 14:18:00,22.0,16.0,30.27,North,349,14.0,-999.0,79,-99.99,,,0.00,weatherlink.com 1.10,2013-03-02 19:18:00,
2013-03-02 14:33:00,21.6,16.0,30.27,NNE,17,8.0,-999.0,80,-99.99,,,0.00,weatherlink.com 1.10,2013-03-02 19:33:00,
2013-03-02 14:48:00,21.1,17.0,30.26,North,351,12.0,-999.0,83,-99.99,,,0.00,weatherlink.com 1.10,2013-03-02 19:48:00,
2013-03-02 15:04:00,21.3,16.0,30.27,NNW,342,8.0,-999.0,81,-99.99,,,0.00,weatherlink.com 1.10,2013-03-02 20:04:00,
2013-03-02 15:19:00,20.9,15.0,30.26,North,360,8.0,-999.0,78,-99.99,,,0.00,weatherlink.com 1.10,2013-03-02 20:19:00,
2013-03-02 15:34:00,21.4,16.0,30.26,North,355,11.0,-999.0,78,-99.99,,,0.00,weatherlink.com 1.10,2013-03-02 20:34:00,
2013-03-02 15:49:00,21.7,16.0,30.26,NNW,346,8.0,-999.0,77,-99.99,,,0.00,weatherlink.com 1.10,2013-03-02 20:49:00,
2013-03-02 16:04:00,21.5,15.0,30.26,North,9,20.0,-999.0,76,-99.99,,,0.00,weatherlink.com 1.10,2013-03-02 21:04:00,
2013-03-02 16:34:00,21.2,15.0,30.25,North,355,13.0,-999.0,76,-99.99,,,0.00,weatherlink.com 1.10,2013-03-02 21:34:00,
2013-03-02 16:49:00,21.2,14.0,30.25,NNW,344,9.0,-999.0,75,-99.99,,,0.00,weatherlink.com 1.10,2013-03-02 21:49:00,
2013-03-02 17:04:00,20.1,13.0,30.25,NNW,348,12.0,-999.0,75,-99.99,,,0.00,weatherlink.com 1.10,2013-03-02 22:04:00,
2013-03-02 17:19:00,19.9,14.0,30.25,NNW,336,12.0,-999.0,76,-99.99,,,0.00,weatherlink.com 1.10,2013-03-02 22:19:00,
2013-03-02 17:34:00,20.1,13.0,30.25,NNW,331,10.0,-999.0,75,-99.99,,,0.00,weatherlink.com 1.10,2013-03-02 22:34:00,
2013-03-02 17:49:00,19.8,13.0,30.25,NNW,328,6.0,-999.0,76,-99.99,,,0.00,weatherlink.com 1.10,2013-03-02 22:49:00,
2013-03-02 18:05:00,19.5,13.0,30.25,NNW,347,11.0,-999.0,76,-99.99,,,0.00,weatherlink.com 1.10,2013-03-02 23:05:00,
2013-03-02 18:20:00,18.9,13.0,30.25,NW,313,7.0,-999.0,77,-99.99,,,0.00,weatherlink.com 1.10,2013-03-02 23:20:00,
2013-03-02 18:35:00,18.3,12.0,30.25,North,355,5.0,-999.0,77,-99.99,,,0.00,weatherlink.com 1.10,2013-03-02 23:35:00,
2013-03-02 18:50:00,17.9,12.0,30.25,NNW,328,7.0,-999.0,78,-99.99,,,0.00,weatherlink.com 1.10,2013-03-02 23:50:00,
2013-03-02 19:05:00,17.5,12.0,30.25,NNW,346,7.0,-999.0,78,-99.99,,,0.00,weatherlink.com 1.10,2013-03-03 00:05:00,
2013-03-02 19:20:00,17.4,12.0,30.24,NNW,329,7.0,-999.0,78,-99.99,,,0.00,weatherlink.com 1.10,2013-03-03 00:20:00,
2013-03-02 19:35:00,17.3,12.0,30.24,NW,325,8.0,-999.0,78,-99.99,,,0.00,weatherlink.com 1.10,2013-03-03 00:35:00,
2013-03-02 19:50:00,17.3,12.0,30.24,NNW,327,8.0,-999.0,78,-99.99,,,0.00,weatherlink.com 1.10,2013-03-03 00:50:00,
2013-03-02 20:05:00,17.2,12.0,30.24,NNW,343,8.0,-999.0,79,-99.99,,,0.00,weatherlink.com 1.10,2013-03-03 01:05:00,
2013-03-02 20:20:00,17.1,12.0,30.24,NW,326,6.0,-999.0,79,-99.99,,,0.00,weatherlink.com 1.10,2013-03-03 01:20:00,
2013-03-02 20:35:00,16.9,11.0,30.24,NNW,329,7.0,-999.0,78,-99.99,,,0.00,weatherlink.com 1.10,2013-03-03 01:35:00,
2013-03-02 20:50:00,16.7,11.0,30.23,NNW,336,9.0,-999.0,79,-99.99,,,0.00,weatherlink.com 1.10,2013-03-03 01:50:00,
2013-03-02 21:06:00,16.6,11.0,30.23,NW,315,9.0,-999.0,79,-99.99,,,0.00,weatherlink.com 1.10,2013-03-03 02:06:00,
2013-03-02 21:21:00,16.5,11.0,30.23,NNW,327,11.0,-999.0,79,-99.99,,,0.00,weatherlink.com 1.10,2013-03-03 02:21:00,
2013-03-02 21:36:00,16.7,11.0,30.22,NW,325,9.0,-999.0,79,-99.99,,,0.00,weatherlink.com 1.10,2013-03-03 02:36:00,
2013-03-02 21:51:00,16.6,11.0,30.22,NW,323,7.0,-999.0,79,-99.99,,,0.00,weatherlink.com 1.10,2013-03-03 02:51:00,
2013-03-02 22:06:00,16.5,11.0,30.22,NW,325,7.0,-999.0,79,-99.99,,,0.00,weatherlink.com 1.10,2013-03-03 03:06:00,
2013-03-02 22:21:00,16.3,11.0,30.21,NW,326,8.0,-999.0,79,-99.99,,,0.00,weatherlink.com 1.10,2013-03-03 03:21:00,
2013-03-02 22:36:00,16.0,11.0,30.21,NNW,329,5.0,-999.0,79,-99.99,,,0.00,weatherlink.com 1.10,2013-03-03 03:36:00,
2013-03-02 22:51:00,16.1,11.0,30.21,NW,323,4.0,-999.0,80,-99.99,,,0.00,weatherlink.com 1.10,2013-03-03 03:51:00,
2013-03-02 23:06:00,15.8,11.0,30.20,NW,323,4.0,-999.0,80,-99.99,,,0.00,weatherlink.com 1.10,2013-03-03 04:06:00,
2013-03-02 23:21:00,15.3,11.0,30.20,NW,320,4.0,-999.0,81,-99.99,,,0.00,weatherlink.com 1.10,2013-03-03 04:21:00,
2013-03-02 23:37:00,15.1,10.0,30.19,NW,316,5.0,-999.0,81,-99.99,,,0.00,weatherlink.com 1.10,2013-03-03 04:37:00,
2013-03-02 23:52:00,14.8,10.0,30.19,NW,317,4.0,-999.0,82,-99.99,,,0.00,weatherlink.com 1.10,2013-03-03 04:52:00,